Details From KSAN - San Diego Intl
To KPSP - Palm Springs Intl
Flight Number -
Tags generated
Created
Modified
Stats Distance 74 nm / 138 km
Max Altitude 2,500 ft / 762 m
Waypoints 3
Social Downloads 23
Likes 0
Share VATSIM

Download

Looking for another format? Having issues loading an existing format? Contact us
Advertisement - Login to hide

Notes

Basic altitude profile: - Ascent Rate: 2500ft/min - Ascent Speed: 250kts - Cruise Altitude: 4000ft - Cruise Speed: 330kts - Descent Rate: 1500ft/min - Descent Speed: 250kts Options: - Use NATs: yes - Use PACOTS: yes - Use low airways: yes - Use high airways: yes

Route

KSAN HAPPE KPSP

ID Type Via Altitude Latitude Longitude Leg Dist Tot Dist Heading (true) Name
O KSAN APT - 0 ft / 0 m 32.73356˚ -117.18966˚ - 0 nm - San Diego Intl
HAPPE FIX - 2,500 ft / 762 m 33.67163˚ -116.65659˚ 62 nm 62 nm 25° / 26° -
O KPSP APT - 0 ft / 0 m 33.82968˚ -116.50622˚ 12 nm 74 nm 38° / 38° Palm Springs Intl

Altitude Profile

Advertisement - Login to hide

KSAN

Details ICAO KSAN (SAN)
Name San Diego Intl
Region United States
Timezone America/Los_Angeles (UTC-7.0)
Stats Elevation 17 ft / 5 m (AMSL)
Location 32.733556° -117.189658°
Runways 1
Magnetic Variation 11.487° E

METAR

KSAN 251851Z 31013KT 10SM SCT024 BKN040 19/12 A3014 RMK AO2 SLP206 T01940117

Decode

TAF

KSAN 251734Z 2518/2624 29011G18KT P6SM SCT025 SCT040 FM260300 31005KT P6SM BKN035 FM260600 VRB04KT P6SM SCT025 BKN035 FM260900 VRB04KT P6SM OVC025 TEMPO 2612/2616 -DZ BKN018 FM261900 28011KT P6SM SCT025 SCT035

Decode

Departure Runways

ID Width Length Bearing (true) Bearing (mag) Surface Threshold Offset Overrun Length
09 200 ft / 61 m 9,387 ft / 2,861 m 106.07° 94.58° Asphalt 699 ft / 213 m 269 ft / 82 m
27 200 ft / 61 m 9,387 ft / 2,861 m 286.08° 274.59° Asphalt 1,811 ft / 552 m 0 ft / 0 m

KPSP

Details ICAO KPSP (PSP)
Name Palm Springs Intl
Region United States
Timezone America/Los_Angeles (UTC-7.0)
Stats Elevation 477 ft / 145 m (AMSL)
Location 33.829677° -116.506218°
Runways 2
Magnetic Variation 11.541° E

METAR

KPSP 251853Z 29016G23KT 10SM CLR 28/06 A2995 RMK AO2 SLP140 T02780056

Decode

TAF

TAF KPSP 251734Z 2518/2618 32012G20KT P6SM SKC FM252200 32020G30KT P6SM SKC FM260800 32012G20KT P6SM SKC FM261200 29006KT P6SM SKC FM261700 32015G25KT P6SM SKC

Decode

Destination Runways

ID Width Length Bearing (true) Bearing (mag) Surface Threshold Offset Overrun Length
13L 75 ft / 23 m 4,958 ft / 1,511 m 143.52° 131.98° Asphalt 0 ft / 0 m 151 ft / 46 m
13R 151 ft / 46 m 10,012 ft / 3,052 m 143.52° 131.98° Asphalt 2,999 ft / 914 m 200 ft / 61 m
31L 151 ft / 46 m 10,012 ft / 3,052 m 323.53° 311.99° Asphalt 1,499 ft / 457 m 200 ft / 61 m
31R 75 ft / 23 m 4,958 ft / 1,511 m 323.53° 311.99° Asphalt 0 ft / 0 m 151 ft / 46 m

Popular Alternatives